This demonstration page uses our WeatherBlox Daily Observations layout. Learn more.

Left ArrowRight Arrow

38.80484, -77.04692

Hourly Observations for February 7, 2016

Temp ( °F °C ) Dew Point ( °F °C ) Humidity (%) Winds ( mph kmh ) Pressure ( in mb ) Visibility ( mi km ) Precip ( " mm )
12:52 am 00:52 Mostly Cloudy 35 1.7 26 -3.3 70 70 SSE 3 6 30.25 1025 10 16 0.00 0.00
1:52 am 01:52 Mostly Cloudy 33 0.6 26 -3.3 75 75 SW 3 6 30.25 1025 10 16 0.00 0.00
2:52 am 02:52 Partly Cloudy 33 0.6 25 -3.9 72 72 SSW 3 6 30.24 1024 10 16 0.00 0.00
3:52 am 03:52 Partly Cloudy 33 0.6 25 -3.9 72 72 SW 3 6 30.22 1024 10 16 0.00 0.00
4:52 am 04:52 Mostly Cloudy 30 -1.1 25 -3.9 82 82 SSW 5 7 30.23 1024 10 16 0.00 0.00
5:52 am 05:52 Mostly Cloudy 32 0 26 -3.3 79 79 Calm 30.18 1022 10 16 0.00 0.00
6:52 am 06:52 Mostly Cloudy 31 -0.6 25 -3.9 79 79 SW 3 6 30.20 1023 10 16 0.00 0.00
7:52 am 07:52 Mostly Cloudy 32 0 25 -3.9 75 75 N 5 7 30.21 1023 10 16 0.00 0.00
8:52 am 08:52 Mostly Cloudy 33 0.6 27 -2.8 78 78 NE 7 11 30.18 1022 10 16 0.00 0.00
9:52 am 09:52 Mostly Cloudy 36 2.2 25 -3.9 64 64 N 9 15 30.17 1022 10 16 0.00 0.00
10:52 am 10:52 Mostly Cloudy 40 4.4 25 -3.9 55 55 NNW 9 15 30.16 1021 10 16 0.00 0.00
11:52 am 11:52 Cloudy 44 6.7 25 -3.9 47 47 N 6 9 30.12 1020 10 16 0.00 0.00
12:52 pm 12:52 Cloudy 45 7.2 27 -2.8 49 49 ENE 8 13 30.10 1019 10 16 0.00 0.00
1:52 pm 13:52 Cloudy 45 7.2 25 -3.9 46 46 NE 12 19 30.06 1018 10 16 0.00 0.00
2:52 pm 14:52 Cloudy 46 7.8 21 -6.1 37 37 NNE 14 22 30.01 1016 9 14 0.00 0.00
3:52 pm 15:52 Cloudy 45 7.2 22 -5.6 40 40 NE 10 17 30.01 1016 10 16 0.00 0.00
4:52 pm 16:52 Cloudy 43 6.1 23 -5 45 45 NE 9 15 29.98 1015 10 16 0.00 0.00
5:52 pm 17:52 Cloudy 43 6.1 22 -5.6 43 43 NE 8 13 29.98 1015 10 16 0.00 0.00
6:52 pm 18:52 Cloudy 42 5.6 22 -5.6 45 45 NNE 8 13 29.96 1015 10 16 0.00 0.00
7:52 pm 19:52 Cloudy 42 5.6 22 -5.6 45 45 NNE 9 15 29.96 1014 10 16 0.00 0.00
8:52 pm 20:52 Cloudy 41 5 23 -5 49 49 N 13 20 29.92 1013 10 16 0.00 0.00
9:52 pm 21:52 Cloudy 39 3.9 24 -4.4 55 55 N 9 15 29.91 1013 10 16 0.00 0.00
10:52 pm 22:52 Cloudy 40 4.4 24 -4.4 53 53 NNE 10 17 29.88 1012 10 16 0.00 0.00
11:52 pm 23:52 Cloudy 40 4.4 24 -4.4 53 53 N 10 17 29.86 1011 10 16 0.00 0.00

Powered by AerisWeather